EHI
0 0 0 0 0 0 0 0 0 0 0 0 0 0 0 0 1 1 1 4 8 8 8 9 7 4 2 1 1 1 2 2 1 0 0 0 0 0 0 0 0 0 0 0
0 0 0 0 0 0 0 0 0 0 0 0 0 0 0 1 2 2 1 4 7 7 8 9 7 3 2 2 1 0 1 1 0 0 0 0 0 0 0 0 0 0 0 0
0 0 0 0 0 0 0 0 0 0 0 0 0 0 0 1 3 3 1 3 5 7 8 8 6 3 2 1 0 0 0 1 0 0 0 1 1 0 0 0 0 0 0 0
0 0 0 0 0 0 0 0 0 0 0 0 0 0 0 1 3 3 2 2 4 5 6 5 4 2 1 0 0 0 0 0 0 0 0 1 1 0 0 0 1 1 1 1
0 0 0 0 0 0 0 0 0 0 0 0 0 1 1 1 2 4 3 3 3 2 2 3 2 1 0 0 0 0 0 0 0 0 0 1 1 0 0 1 2 2 2 2
0 0 0 0 0 0 0 0 0 0 0 0 0 1 2 2 2 3 5 4 2 0 1 2 1 0 0 0 0 0 0 0 0 0 0 0 0 0 1 2 2 3 3 3
0 0 0 0 0 0 0 0 0 0 0 0 0 1 1 2 3 3 5 5 3 1 0 1 1 0 0 0 0 0 0 0 0 0 0 0 0 0 1 1 1 1 2 2
0 0 0 0 0 0 0 0 0 0 0 0 0 0 1 3 3 4 5 5 4 2 1 0 0 0 0 0 0 0 0 0 0 0 0 0 0 0 0 0 0 0 1 1
0 0 0 0 0 0 0 0 0 0 0 0 0 1 2 3 3 3 4 3 3 3 2 1 0 0 0 0 0 0 0 0 0 0 0 0 0 0 0 0 0 0 0 0
0 0 0 0 0 0 0 0 0 0 0 0 0 1 2 3 2 2 2 1 1 2 3 2 1 0 0 0 0 0 0 0 0 0 0 0 0 0 0 0 0 0 0 0
0 0 0 0 0 0 0 0 0 0 0 0 0 1 2 2 2 2 1 0 0 1 2 2 1 0 0 0 0 0 0 1 0 0 0 0 0 0 0 0 0 0 0 0
0 0 0 0 0 0 0 0 0 0 0 0 0 0 1 2 2 2 2 1 0 0 1 1 0 0 0 0 0 0 0 0 0 0 0 0 0 0 0 0 0 0 0 0
0 0 0 0 0 0 0 0 0 0 0 0 0 0 0 1 2 3 2 1 0 0 0 0 0 0 0 0 0 0 0 0 0 0 0 0 0 0 0 0 0 0 0 0
0 0 0 0 0 0 0 0 0 0 0 0 0 0 0 1 2 2 1 0 0 0 0 0 0 0 0 0 0 0 0 0 0 0 0 0 0 0 0 0 0 0 0 0
0 0 0 0 0 0 0 0 0 0 0 0 0 0 0 0 1 1 0 0 0 0 0 0 0 0 0 0 0 0 0 0 0 0 0 0 0 0 0 0 0 0 0 0
0 0 0 0 0 0 0 0 0 0 0 0 0 0 0 0 0 0 0 0 0 0 0 0 0 0 0 0 0 0 0 0 0 0 0 0 0 0 0 0 0 0 0 0
0 0 0 0 0 0 0 0 0 0 0 0 0 0 0 0 0 0 0 0 0 0 0 0 0 0 0 0 0 0 0 0 0 0 0 0 0 0 0 0 0 0 0 0
0 0 0 0 0 0 0 0 0 0 0 0 0 0 0 0 0 0 0 0 0 0 0 0 0 0 0 0 0 0 0 0 0 0 0 0 0 0 0 0 0 0 0 0
0 0 0 0 0 0 0 0 0 0 0 0 0 0 0 0 0 0 0 0 0 0 0 0 0 0 0 0 0 0 0 0 0 0 0 0 0 0 0 0 0 0 0 0
0 0 0 0 0 0 0 0 0 0 0 0 0 0 0 0 0 0 0 0 0 0 0 0 0 0 0 0 0 0 0 0 0 0 0 0 0 0 0 0 0 0 0 0
0 0 0 0 0 0 0 0 0 0 0 0 0 0 0 0 0 0 0 0 0 0 0 0 0 0 0 0 0 0 0 0 0 0 0 0 0 0 0 0 0 0 0 0
0 0 0 0 0 0 0 0 0 0 0 0 0 0 0 0 0 0 0 0 0 0 0 0 0 0 0 0 0 0 0 0 0 0 0 0 0 0 0 0 0 0 0 0
0 0 0 0 0 0 0 0 0 0 0 0 0 0 0 0 0 0 0 0 0 0 0 0 0 0 0 0 0 0 0 0 0 0 0 0 0 0 0 0 0 0 0 0
0 0 0 0 0 0 0 0 0 0 0 0 0 0 0 0 0 0 0 0 0 0 0 0 0 0 0 0 0 0 0 0 0 0 0 0 0 0 0 0 0 0 0 0
0 0 0 0 0 0 0 0 0 0 0 0 0 0 0 0 0 0 0 0 0 0 0 0 0 0 0 0 0 0 0 0 0 0 0 0 0 0 0 0 0 0 0 0
0 0 0 0 0 0 0 0 0 0 0 0 0 0 0 0 0 0 0 0 0 0 0 0 0 0 0 0 0 0 0 0 0 0 0 0 0 0 0 0 0 0 0 0
0 0 0 0 0 0 0 0 0 0 0 0 0 0 0 0 0 0 0 0 0 0 0 0 0 0 0 0 0 0 0 0 0 0 0 0 0 0 0 0 0 0 0 0
Wind_Speed
10 9 8 9 9 8 9 9 8 6 5 3 1 1 2 2 2 2 3 3 4 3 3 3 2 2 2 2 2 2 2 1 1 1 2 2 2 1 1 2 1 1 1 1
11 9 9 10 10 10 10 9 9 8 6 2 1 2 1 2 3 2 2 3 3 2 2 3 3 2 2 2 2 2 2 1 1 2 2 1 1 0 1 1 1 1 1 1
9 9 9 10 8 8 7 7 7 7 4 1 1 1 2 2 3 2 2 3 2 1 1 1 2 3 2 2 2 2 2 2 1 2 2 1 1 0 0 1 1 1 0 1
7 8 10 3 0 1 4 5 4 3 2 1 1 2 2 3 3 2 2 2 1 0 1 1 1 2 2 2 2 2 2 2 1 1 1 1 1 1 1 1 1 1 1 1
5 8 8 4 2 2 3 4 3 3 2 2 2 1 2 4 4 3 2 2 1 1 1 0 1 2 2 2 2 2 2 2 1 1 1 1 2 2 1 1 1 1 1 1
7 8 7 1 2 2 2 3 2 2 1 1 1 1 1 3 3 3 3 2 1 1 1 1 1 1 2 2 2 1 2 2 2 2 1 1 1 1 1 1 1 2 2 1
10 9 5 2 2 1 2 1 3 2 2 1 1 1 1 2 3 3 2 2 1 1 1 1 1 1 1 1 1 1 1 2 2 1 1 1 1 1 1 1 1 2 1 1
7 9 5 2 2 1 2 3 3 3 2 3 2 2 2 2 2 2 2 1 1 1 1 1 0 1 1 1 1 1 1 2 1 1 1 1 1 1 1 1 1 1 1 0
3 2 2 1 2 2 3 4 4 3 3 2 2 1 1 1 1 1 1 0 0 0 0 0 0 1 1 0 1 1 1 2 1 1 1 1 1 1 1 1 1 1 0 0
5 4 3 3 3 3 3 3 4 3 3 2 2 2 0 0 0 0 0 0 0 0 0 0 1 1 1 0 1 1 2 2 1 1 1 0 0 0 0 0 0 1 1 1
8 6 5 4 3 4 3 3 3 3 2 2 2 2 1 1 1 1 0 0 0 1 1 1 1 1 1 1 1 1 2 2 1 1 1 0 0 0 0 0 0 1 1 1
7 6 7 5 4 3 4 4 3 3 3 2 2 3 3 1 1 0 1 1 1 1 1 1 1 1 1 1 1 1 1 1 1 1 1 1 1 1 2 1 0 1 2 2
7 7 6 5 4 4 4 5 4 3 3 3 3 3 2 1 0 1 1 1 1 1 1 1 1 1 1 2 1 2 1 1 1 1 1 1 1 1 1 2 1 1 2 3
6 6 6 5 5 4 5 5 4 4 3 2 3 2 2 1 1 1 1 1 1 1 1 1 1 1 1 1 1 1 1 1 1 1 1 1 1 1 1 1 1 2 2 3
7 7 7 5 5 5 5 5 4 4 3 3 3 2 1 1 1 1 1 1 1 1 2 1 1 2 1 1 1 1 1 1 1 1 1 1 1 1 1 1 1 1 1 2
6 5 5 5 5 5 5 5 5 4 3 3 3 2 2 1 1 0 1 1 1 2 2 1 2 2 1 1 1 1 1 1 1 1 1 1 1 1 1 1 1 1 1 2
6 5 5 5 5 5 4 4 4 4 3 3 2 2 1 1 1 1 1 1 2 2 1 1 2 2 1 1 1 1 1 1 2 1 1 1 1 1 1 1 1 1 2 2
5 4 4 4 3 3 4 4 3 3 3 3 2 2 2 2 2 2 2 1 1 1 1 1 1 1 1 1 1 1 1 1 1 1 1 1 1 1 1 1 1 2 2 2
2 3 3 3 3 3 3 3 3 3 2 2 3 3 3 2 2 2 1 1 1 1 1 1 1 1 2 2 1 1 1 2 2 1 1 2 2 1 1 1 1 2 2 1
2 2 2 3 3 3 3 2 2 2 2 2 2 2 2 2 2 2 2 2 1 1 1 0 1 1 1 1 1 1 1 2 2 2 2 2 2 2 2 1 1 1 1 1
2 2 2 2 3 3 3 2 2 2 2 2 2 2 2 2 2 2 2 2 1 0 0 1 1 1 1 1 2 2 2 2 2 2 2 2 2 2 2 2 2 2 2 1
2 2 2 3 3 3 3 3 2 2 1 1 2 2 2 2 2 2 2 1 1 1 0 1 1 1 2 2 1 2 2 2 2 2 2 2 1 2 1 1 2 2 1 1
3 3 3 3 3 3 3 2 2 2 2 2 2 2 2 2 2 2 2 1 1 1 0 1 1 2 3 2 1 2 2 2 2 1 2 2 2 2 1 2 2 1 1 1
3 3 3 3 3 3 3 2 2 1 1 2 2 2 2 2 1 1 1 1 1 1 1 1 2 2 3 2 2 2 2 2 2 1 1 1 1 1 1 1 1 1 1 1
3 3 3 3 3 2 2 2 2 2 2 1 2 1 1 1 1 0 0 0 1 1 1 1 2 3 2 2 2 2 2 2 2 1 1 1 1 1 1 1 1 1 1 1
3 3 3 3 3 2 2 1 1 1 1 1 1 1 0 0 0 0 0 1 1 1 1 1 1 2 1 2 2 2 2 2 2 2 2 2 2 2 2 1 2 1 1 1
3 3 2 2 2 2 1 1 1 1 1 1 1 1 1 1 1 0 0 0 1 1 1 1 1 1 1 2 2 2 1 1 1 1 1 1 1 1 1 1 1 1 1 1
Wind_Direction
277 281 283 277 270 267 267 271 272 278 279 277 318 72 89 106 103 94 112 124 134 144 143 135 137 142 135 141 137 123 115 115 113 108 85 68 57 39 15 8 12 13 1 6
276 270 271 269 265 259 259 269 273 276 283 312 44 81 106 104 105 106 114 121 116 123 131 146 154 144 133 133 128 126 129 129 119 116 113 115 115 88 29 1 341 348 338 337
278 279 271 257 248 247 248 258 267 274 288 323 345 52 66 74 85 84 91 99 108 120 128 157 156 149 143 153 152 149 140 136 133 139 148 158 155 136 270 259 283 304 305 309
276 279 259 254 75 272 266 265 278 287 304 331 58 79 78 83 90 82 82 92 96 94 114 144 134 143 141 139 148 154 147 144 135 142 151 161 174 199 233 243 234 247 254 268
266 265 264 256 244 261 267 274 303 299 327 15 30 109 87 66 62 73 70 75 95 62 55 124 144 141 138 147 157 151 152 161 157 147 169 189 202 220 231 232 239 241 228 243
259 264 264 261 40 352 284 259 8 349 360 31 39 252 115 74 71 68 62 54 60 58 38 29 85 123 146 161 156 162 170 173 167 167 176 206 212 237 254 229 228 235 232 218
249 258 266 346 346 309 245 345 27 357 2 3 288 2 85 81 79 79 70 48 51 58 57 29 86 135 165 170 183 182 179 165 167 179 173 186 219 252 254 232 229 238 229 207
243 246 247 11 323 290 2 9 2 1 9 21 24 46 63 67 68 82 79 60 84 91 57 30 103 155 178 194 171 134 152 163 167 178 192 183 189 261 260 217 225 243 233 277
274 264 355 6 354 354 348 334 341 348 13 28 4 358 55 71 54 58 79 71 100 111 86 27 50 189 219 218 142 149 153 174 186 190 174 159 183 251 269 215 204 227 195 253
272 269 276 287 305 315 325 318 330 349 358 345 317 312 295 215 208 280 258 177 353 191 200 273 260 281 240 212 179 181 182 181 186 191 191 182 175 195 254 305 213 210 209 223
277 274 284 280 298 307 312 315 329 340 332 330 320 309 286 255 230 236 289 250 224 218 221 250 250 240 211 186 180 201 197 189 189 181 156 121 24 342 221 210 202 210 218 214
272 279 275 276 281 311 309 301 304 307 310 304 292 290 286 271 257 253 255 281 288 273 251 258 248 210 180 186 199 210 218 204 183 171 170 172 153 17 6 310 243 216 210 219
283 294 298 299 296 300 296 294 290 286 285 296 295 279 275 272 242 265 266 265 268 272 278 282 280 279 200 177 199 215 223 225 191 177 181 198 206 198 306 344 332 275 250 242
295 294 287 289 287 290 287 288 289 285 279 282 292 283 262 255 259 254 272 275 283 281 276 272 275 285 262 153 166 198 201 228 230 192 185 207 222 231 241 263 295 313 288 253
281 278 274 271 273 275 279 280 277 274 277 279 287 278 245 236 247 252 285 308 300 291 284 278 280 289 259 174 183 199 193 194 200 205 200 213 211 226 253 266 277 298 328 317
286 284 275 263 261 263 263 262 261 260 261 265 275 272 239 238 241 248 258 252 256 268 282 298 296 294 280 198 193 202 194 214 238 222 212 215 221 225 249 260 274 278 284 295
279 273 274 275 270 269 270 273 271 264 259 260 263 271 228 208 217 229 241 246 251 258 270 283 285 290 285 220 197 193 192 211 241 232 212 219 227 234 238 242 257 273 279 285
274 273 272 268 273 285 284 279 278 277 269 259 255 254 222 213 218 229 246 255 264 280 283 281 306 314 286 252 219 199 202 210 213 213 222 241 244 231 231 245 258 269 282 289
300 300 296 288 277 267 276 288 288 279 269 251 239 239 226 225 229 230 241 255 258 267 279 305 325 305 289 279 272 235 227 224 221 221 220 237 243 236 233 236 251 265 269 280
307 317 318 314 306 298 289 277 284 278 267 256 254 254 235 227 220 220 231 244 244 246 254 307 289 278 266 264 289 262 248 239 231 231 225 217 219 230 228 231 238 252 266 273
316 306 309 305 301 301 299 288 273 273 270 248 234 243 247 247 236 225 223 241 253 267 256 233 230 248 261 298 290 270 256 241 231 227 231 230 221 224 230 240 249 252 255 265
321 324 323 319 313 303 299 295 289 278 273 248 235 242 250 245 239 242 241 233 220 196 233 230 228 248 302 310 272 267 262 252 240 229 228 230 228 229 235 253 264 270 270 274
311 313 316 310 303 303 303 301 292 275 259 249 238 235 242 240 219 216 236 223 186 199 262 247 243 282 304 293 259 264 262 255 244 233 223 215 227 230 233 248 255 264 265 270
304 307 306 305 303 298 295 300 303 297 294 287 265 249 245 249 239 210 189 178 194 207 244 233 247 274 291 272 257 255 256 250 235 235 236 223 222 227 236 245 249 253 257 263
303 303 293 292 294 294 295 307 320 325 310 298 295 288 265 231 216 196 114 157 169 192 235 256 269 274 266 263 265 263 262 252 243 243 233 227 228 230 233 237 236 236 231 232
298 293 292 294 295 288 286 285 289 296 302 300 294 300 334 23 42 68 123 205 220 234 249 262 263 267 275 284 282 269 252 248 239 230 227 223 226 233 231 228 239 238 227 226
284 279 275 272 276 283 287 289 290 294 295 297 314 334 349 358 4 350 304 267 256 242 243 254 262 275 279 282 285 285 272 256 233 219 219 216 224 226 215 221 230 236 227 226